Weather Roundup
Issued by NWS Corpus Christi, TX

Home | Current Version | Previous Version | Text Only | Print | Product List | Glossary On
Versions: 1 2 3 4 5 6 7 8 9 10 11 12 13 14 15 16 17 18 19 20 21 22 23 24 25 26 27 28 29 30 31 32 33 34 35 36 37 38 39 40 41 42 43 44 45 46 47 48 49 50
000
ASUS44 KCRP 021910
HRRCRP

SOUTH TEXAS REGIONAL WEATHER ROUNDUP
NATIONAL WEATHER SERVICE CORPUS CHRISTI TX
200 PM CDT TUE SEP 02 2014


TXZ229>244-022000-
...CORPUS CHRISTI AREA OBSERVATIONS...

CITY           SKY/WX    TMP DP  RH WIND       PRES   REMARKS
CORPUS CHRISTI MOSUNNY   90  74  59 SE22      29.90F HX  99
NAS CORPUS CHR MOSUNNY   92  77  61 SE21G26   29.91F HX 105
ROCKPORT       MOSUNNY   91  75  59 SE20      29.92F HX 101
KINGSVILLE NAS PTSUNNY   92  74  55 E20G28    29.89F HX 101
ALICE          LGT RAIN  96  72  45 E17G25    29.88F HX 104
FALFURRIAS     PTSUNNY   92  69  46 E15       29.87F HX  97
$$

...VICTORIA AREA OBSERVATIONS...

CITY           SKY/WX    TMP DP  RH WIND       PRES   REMARKS
VICTORIA       PTSUNNY   95  73  48 SE18G28   29.94F HX 104
BEEVILLE       PTSUNNY   93  71  48 SE15G23   29.91F HX  99
PLEASANTON     PTSUNNY   96  69  40 SE14G21   29.91F HX 101
SAN ANTONIO    MOSUNNY   94  71  47 S12       29.94F HX 101
$$

...LAREDO AREA OBSERVATIONS...

CITY           SKY/WX    TMP DP  RH WIND       PRES   REMARKS
LAREDO         MOSUNNY   96  70  42 E8        29.89F HX 102
COTULLA        PTSUNNY   95  68  41 S7        29.89F HX  99
DEL RIO        MOSUNNY   94  68  42 SE12G22   29.89F HX  98
MCALLEN        MOSUNNY   92  76  59 NE9       29.86F HX 104
HEBBRONVILLE   PTSUNNY   92  67  43 E12G18    29.90F HX  95
$$

...OTHER TEXAS OBSERVATIONS...

CITY           SKY/WX    TMP DP  RH WIND       PRES   REMARKS
BROWNSVILLE    MOSUNNY   91  77  63 E12G21    29.86F HX 104
HOUSTON        PTSUNNY   91  73  55 S13       29.98S HX 100
COL. STATION   PTSUNNY   93  72  50 SE10G17   29.96F HX 101
AUSTIN         PTSUNNY   96  68  39 SE14G22   29.93F HX 101
WACO           MOSUNNY   96  69  41 S12       29.95F HX 102
FORT WORTH     MOSUNNY   93  70  46 SE13G18   29.97F HX  99
WICHITA FALLS  MOSUNNY   97  67  37 S18G24    29.93F HX 101
LUBBOCK        MOSUNNY   95  62  33 E9        29.98F HX  96
EL PASO        MOSUNNY   96  35  11 S3        29.99F HX  91
$$

...MARINE OBSERVATIONS...

STATION/POSITION TIME  SKY/WX   TEMP    WIND        PRES    VSBY  WAVE   SWELL
                                AIR SEA DIR/SP/G                  HT/PER HT/PER
                 (UTC)          (F)     (DEG/KT/KT) (MB)    (MI)  (FT/S) (FT/S)
PORT ARANSAS     1900            85 85  120/ 16/ 17 1013.7F
BUOY 90 E PORT A 1900            85 85  130/ 19/ 21 1014.3S         6/ 7   3/11
BUOY 45 SE BAFFI 1900            84 85  130/ 16/ 19 1011.7F         7/ 8   5/ 8
BUOY 200 E PT IS 1900            85 85  130/ 19/ 23 1013.8F         8/10   7/10
BUOY 15 E GALVES 1900            85 86  130/ 14/ 16 1015.2F         4/ 8   3/ 8
$$


USA.gov is the U.S. government's official web portal to all federal, state and local government web resources and services.